Location: ??
(34.7707°N, 135.6540°E)
Time: 07:59:19
(UTC+00:00)

NOSS 3-3 (C) - Pass Details

Date: 09 April 2020
Orbit: 836 x 1376 km, 63.4° (Epoch: 05 May)

Event Time Altitude Azimuth Distance (km) Brightness Sun altitude
Rises 18:09:32 0° 328° (NNW) 4,082 7.3 -28.0°
Reaches altitude 10° 18:12:10 10° 327° (NNW) 3,184 6.7 -27.5°
Maximum altitude 18:20:00 83° 242° (WSW) 1,329 4.5 -26.1°
Drops below altitude 10° 18:28:29 10° 155° (SSE) 3,425 6.8 -24.7°
Sets 18:31:25 0° 154° (SSE) 4,405 7.4 -24.1°
